[[{"header":{"parameterUnit":"m.s-1","parameterCategory":1,"la1":30.2991,"la2":30.254,"lo1":-89.0895,"lo2":-89.0444,"dy":0.0017,"dx":0.0017,"nx":28,"ny":28,"refTime":"2025-04-09T21:00:00:Z","depth":0,"parameterNumber":2,"parameterNumberName":"U-component_of_WINDS"},"data":[0,0,0,0,0,0,0,0,0,0,0,0,0,0,0,0,0,0,0,0,0,0,0,0,0,0,0,0,0,0,0,0,0,0,0,0,0,0,0,0,0,0,0,0,0,0,0,0,0,0,0,0,0,0,0,0,0,0,0.5094,0.5095,0,0.5122,0.5122,0.5122,0.5075,0.5073,0.5072,0.507,0.51,0.5102,0.5105,0,0,0,0,0,0,0,0,0,0,0,0,0,0.5003,0.5005,0.5094,0.5095,0.5095,0.5122,0.5122,0.5123,0.5075,0.5073,0.5071,0.5069,0.5099,0.5102,0.5105,0,0,0,0,0,0,0,0,0,0,0,0,0,0.5038,0.5006,0.5094,0.5075,0.5073,0.5122,0.5122,0.5123,0.5076,0.5073,0.5071,0.5068,0.5098,0.5102,0.5105,0.5175,0,0,0.5116,0.5117,0,0,0,0,0,0,0,0,0.5036,0.5042,0.5077,0.5076,0.5074,0.5092,0.5101,0.514,0.5076,0.5075,0.507,0.5067,0.51,0.5103,0.5113,0.5176,0.5178,0.5116,0.5118,0.512,0.5121,0,0,0,0,0,0,0,0.5034,0.504,0.5105,0.5078,0.5076,0.5065,0.5067,0.5108,0.51,0.5075,0.5071,0.5075,0.5098,0.511,0.5114,0.5178,0.5116,0.5119,0.5121,0.5123,0.5302,0.5305,0,0,0,0,0,0,0.5034,0.5038,0.5104,0.5106,0.5049,0.5069,0.5071,0.5089,0.51,0.5099,0.5077,0.5073,0.5105,0.511,0.5115,0.5199,0.512,0.5123,0.5125,0.53,0.5303,0.5306,0,0,0,0,0,0,0.5032,0.504,0.5103,0.5071,0.5079,0.5073,0.5093,0.5091,0.5103,0.5102,0.51,0.509,0.5104,0.511,0.5161,0.5199,0.5124,0.5128,0.5297,0.5301,0.5304,0.5368,0,0,0,0,0,0,0.5029,0.504,0.5065,0.5072,0.508,0.5148,0.5096,0.5093,0.5108,0.5103,0.5114,0.5113,0.5102,0.5156,0.5164,0.5203,0.513,0.5293,0.5298,0.5303,0.5362,0.5373,0.5383,0,0,0,0,0,0.5026,0.5082,0.5067,0.5075,0.5112,0.5151,0.5155,0.5141,0.5112,0.5138,0.5138,0.5113,0.5193,0.5162,0.5171,0.5211,0.5291,0.5297,0.5303,0.5357,0.5371,0.5383,0,0,0,0,0,0,0.508,0.5082,0.5066,0.5125,0.5138,0.5143,0.5176,0.5156,0.5178,0.5172,0.5154,0.5157,0.5212,0.5216,0.518,0.528,0.5237,0.5245,0.5276,0.5289,0.5299,0.5298,0.5133,0,0,0,0,0,0.5099,0.5129,0.5129,0.5182,0.5189,0.5181,0.5197,0.5185,0.5198,0.5204,0.5207,0.5221,0.525,0.5269,0.5295,0.5362,0.5365,0.5394,0.5404,0.5413,0.5421,0.5459,0.5473,0.5326,0.5326,0.5326,0,0,0.5138,0.5143,0.5163,0.5193,0.5201,0.5234,0.5186,0.5223,0.5247,0.5209,0.5258,0.5261,0.5276,0.5336,0.5362,0.5341,0.5462,0.5421,0.5428,0.5431,0.5467,0.5481,0.5493,0.533,0.5329,0.5329,0,0,0.5227,0.5232,0.5278,0.5288,0.5301,0.5296,0.5307,0.5314,0.5315,0.5364,0.5336,0.5366,0.5415,0.5427,0.544,0.5534,0.5513,0.5543,0.5598,0.5636,0.5647,0.5658,0.5694,0.5707,0.555,0.5551,0.5551,0,0.5274,0.5322,0.5304,0.5343,0.5358,0.5324,0.5371,0.5381,0.5403,0.5415,0.539,0.5452,0.5459,0.5523,0.5546,0.5556,0.557,0.5543,0.5647,0.5657,0.5666,0.5701,0.5714,0.5554,0.5554,0.5554,0.5553,0,0.538,0.5414,0.5449,0.5471,0.549,0.5532,0.5522,0.5543,0.5529,0.5527,0.5578,0.5586,0.5614,0.5627,0.5614,0.569,0.5676,0.565,0.5607,0.5684,0.5717,0.5729,0.556,0.5558,0.5557,0.5556,0,0,0.5505,0.5517,0.553,0.5541,0.5554,0.558,0.5621,0.5649,0.5668,0.5684,0.572,0.5763,0.5739,0.5753,0.5741,0.5773,0.5851,0.5743,0.5743,0.5765,0.5938,0.596,0.5975,0.5836,0.5838,0.584,0.5937,0,0.5595,0.5667,0.5652,0.5723,0.5755,0.5724,0.5761,0.5774,0.5772,0.58,0.5799,0.5831,0.5795,0.5804,0.5834,0.5835,0.5886,0.5827,0.5871,0.5873,0.5871,0.5991,0.6014,0.6106,0.5949,0.5951,0.5953,0,0.571,0.5731,0.5805,0.5815,0.5828,0.5861,0.5886,0.5912,0.5926,0.5923,0.594,0.5922,0.5965,0.592,0.598,0.5941,0.5957,0.596,0.5964,0.5969,0.592,0.6003,0.6134,0.6149,0.5972,0.597,0.5969,0,0.5797,0.5843,0.5894,0.5904,0.5915,0.594,0.5946,0.5957,0.5975,0.5997,0.6009,0.6035,0.605,0.6071,0.6062,0.6029,0.6125,0.6078,0.6125,0.6126,0.6149,0.6148,0.6288,0.6155,0.6155,0.6155,0.6155,0,0.5901,0.5948,0.5934,0.5965,0.6018,0.6001,0.6054,0.6056,0.6067,0.61,0.6073,0.6105,0.6089,0.6119,0.6111,0.6164,0.617,0.617,0.6168,0.6174,0.6175,0.6187,0.6182,0.6159,0.6158,0.6157,0.6156,0,0.6008,0.5999,0.6053,0.606,0.6063,0.6102,0.6108,0.6138,0.6135,0.6176,0.6185,0.6181,0.6215,0.6207,0.6245,0.624,0.6307,0.6295,0.6302,0.63,0.6349,0.6346,0.6504,0.6525,0.6377,0.6378,0.6379,0,0.6076,0.6112,0.6122,0.6142,0.615,0.6182,0.62,0.6185,0.6205,0.6225,0.6253,0.6285,0.6311,0.6368,0.6369,0.6398,0.6388,0.6442,0.6393,0.6398,0.6393,0.6392,0.6396,0.6452,0.6454,0.6455,0.6457,0,0.6198,0.6193,0.622,0.6246,0.6269,0.6289,0.6306,0.6324,0.631,0.6335,0.637,0.639,0.6428,0.6462,0.6489,0.6496,0.6475,0.6472,0.6485,0.6493,0.6496,0.6498,0.6332,0.6469,0.6467,0.6467,0.6466,0.6465,0.629,0.6321,0.6334,0.6366,0.6377,0.6394,0.6424,0.6424,0.6453,0.6484,0.6473,0.6514,0.6528,0.6562,0.6573,0.6605,0.6585,0.6604,0.6609,0.6614,0.6622,0.6489,0.661,0.6609,0.6609,0.6609,0.6609,0,0.6414,0.642,0.6449,0.6475,0.6501,0.6477,0.6496,0.6519,0.6555,0.657,0.6596,0.6637,0.6669,0.6673,0.6703,0.6729,0.672,0.6738,0.6737,0.674,0.6636,0.6623,0.6744,0.6744,0.6744,0.6744,0.6744,0.6744,0.6481,0.6534,0.653,0.6588,0.6595,0.6635,0.6648,0.6664,0.6676,0.6724,0.675,0.6752,0.6763,0.6794,0.6823,0.6823,0.6837,0.6859,0.6856,0.676,0.6747,0.6734,0.6722,0.6862,0.6862,0.6957,0.6958,0.6959]},{"header":{"parameterUnit":"m.s-1","parameterCategory":1,"la1":30.2991,"la2":30.254,"lo1":-89.0895,"lo2":-89.0444,"dy":0.0017,"dx":0.0017,"nx":28,"ny":28,"refTime":"2025-04-09T21:00:00:Z","depth":0,"parameterNumber":3,"parameterNumberName":"V-component_of_WINDS"},"data":[0,0,0,0,0,0,0,0,0,0,0,0,0,0,0,0,0,0,0,0,0,0,0,0,0,0,0,0,0,0,0,0,0,0,0,0,0,0,0,0,0,0,0,0,0,0,0,0,0,0,0,0,0,0,0,0,0,0,-3.8551,-3.8551,0,-3.8584,-3.8584,-3.8585,-3.8589,-3.8589,-3.8588,-3.8588,-3.8619,-3.862,-3.8621,0,0,0,0,0,0,0,0,0,0,0,0,0,-3.8489,-3.849,-3.8551,-3.8551,-3.8552,-3.8584,-3.8584,-3.8585,-3.8589,-3.8589,-3.8588,-3.8588,-3.8618,-3.862,-3.8621,0,0,0,0,0,0,0,0,0,0,0,0,0,-3.8518,-3.8491,-3.8551,-3.8558,-3.8559,-3.8584,-3.8584,-3.8585,-3.8589,-3.8589,-3.8588,-3.8588,-3.8618,-3.862,-3.8621,-3.8641,0,0,-3.8626,-3.8627,0,0,0,0,0,0,0,0,-3.8517,-3.8521,-3.8556,-3.8557,-3.8558,-3.8582,-3.8574,-3.8603,-3.8589,-3.8577,-3.8588,-3.8588,-3.8607,-3.8609,-3.8616,-3.8642,-3.8643,-3.8626,-3.8627,-3.8628,-3.8629,0,0,0,0,0,0,0,-3.8515,-3.8519,-3.8564,-3.8557,-3.8558,-3.8559,-3.8562,-3.858,-3.8594,-3.8578,-3.8579,-3.8583,-3.8607,-3.8615,-3.8617,-3.8644,-3.8626,-3.8628,-3.8629,-3.863,-3.8689,-3.8689,0,0,0,0,0,0,-3.8512,-3.8518,-3.8563,-3.8565,-3.8536,-3.856,-3.8564,-3.8575,-3.8594,-3.8597,-3.8583,-3.8583,-3.8612,-3.8615,-3.8618,-3.8643,-3.8628,-3.863,-3.8631,-3.8688,-3.8689,-3.869,0,0,0,0,0,0,-3.8511,-3.8516,-3.8561,-3.8541,-3.8547,-3.8562,-3.8574,-3.8576,-3.8583,-3.8598,-3.86,-3.8589,-3.8612,-3.8616,-3.8636,-3.8644,-3.863,-3.8632,-3.8688,-3.8688,-3.8689,-3.8693,0,0,0,0,0,0,-3.8509,-3.8515,-3.8523,-3.8542,-3.8548,-3.8579,-3.8574,-3.8577,-3.8587,-3.8587,-3.8603,-3.8605,-3.8612,-3.8633,-3.8637,-3.8646,-3.8633,-3.8687,-3.8688,-3.8689,-3.8692,-3.8694,-3.8696,0,0,0,0,0,-3.8507,-3.8522,-3.8524,-3.8529,-3.8559,-3.8579,-3.8583,-3.8591,-3.8587,-3.8595,-3.8605,-3.8605,-3.8643,-3.8635,-3.864,-3.865,-3.8686,-3.8688,-3.8689,-3.8692,-3.8694,-3.8695,0,0,0,0,0,0,-3.8502,-3.8524,-3.8526,-3.8548,-3.8562,-3.858,-3.859,-3.8593,-3.8607,-3.8606,-3.8615,-3.8618,-3.8638,-3.8646,-3.8637,-3.867,-3.8664,-3.8666,-3.8665,-3.8667,-3.8668,-3.8666,-3.8635,0,0,0,0,0,-3.8504,-3.852,-3.8538,-3.8555,-3.8563,-3.8575,-3.8584,-3.859,-3.8604,-3.8609,-3.862,-3.8633,-3.8648,-3.8658,-3.8672,-3.8693,-3.8698,-3.8703,-3.8704,-3.8706,-3.8707,-3.872,-3.8723,-3.8694,-3.8694,-3.8694,0,0,-3.8507,-3.8522,-3.8531,-3.8555,-3.8566,-3.8583,-3.858,-3.8596,-3.8608,-3.8611,-3.8632,-3.864,-3.8655,-3.8676,-3.8686,-3.8683,-3.8717,-3.8707,-3.8708,-3.8709,-3.8722,-3.8725,-3.8727,-3.8695,-3.8695,-3.8694,0,0,-3.8522,-3.8534,-3.8551,-3.8563,-3.8581,-3.859,-3.8594,-3.8612,-3.8618,-3.8639,-3.8642,-3.8656,-3.8681,-3.8692,-3.8701,-3.8723,-3.8724,-3.8727,-3.8735,-3.8748,-3.875,-3.8752,-3.8761,-3.8764,-3.8729,-3.8729,-3.8729,0,-3.8524,-3.8549,-3.8559,-3.8576,-3.8587,-3.8593,-3.861,-3.862,-3.8642,-3.8649,-3.8646,-3.8679,-3.8689,-3.8714,-3.8719,-3.8726,-3.8731,-3.8725,-3.8749,-3.8752,-3.8754,-3.8762,-3.8765,-3.8729,-3.8729,-3.8729,-3.8729,0,-3.8551,-3.8568,-3.8579,-3.8602,-3.8614,-3.8631,-3.8643,-3.8654,-3.8659,-3.8668,-3.8689,-3.8702,-3.872,-3.8726,-3.873,-3.8752,-3.875,-3.8748,-3.8742,-3.8757,-3.8765,-3.8768,-3.873,-3.873,-3.8729,-3.8729,0,0,-3.8562,-3.8592,-3.8596,-3.8607,-3.8628,-3.8642,-3.8659,-3.8678,-3.8688,-3.8702,-3.8718,-3.874,-3.8739,-3.8749,-3.8755,-3.8766,-3.8783,-3.8763,-3.8763,-3.8767,-3.8809,-3.881,-3.8814,-3.8784,-3.8785,-3.8785,-3.8808,0,-3.858,-3.8613,-3.8623,-3.865,-3.8667,-3.8673,-3.8689,-3.8703,-3.8712,-3.8727,-3.8737,-3.8753,-3.8751,-3.8757,-3.8768,-3.8779,-3.8792,-3.8777,-3.8798,-3.8799,-3.8795,-3.8818,-3.8819,-3.884,-3.8811,-3.8811,-3.8812,0,-3.8605,-3.8622,-3.8652,-3.8673,-3.868,-3.8694,-3.8713,-3.8727,-3.8744,-3.875,-3.8763,-3.8768,-3.8786,-3.8779,-3.8805,-3.8795,-3.8804,-3.8811,-3.8812,-3.8814,-3.8806,-3.8821,-3.8846,-3.885,-3.8817,-3.8816,-3.8816,0,-3.8612,-3.8642,-3.8664,-3.8673,-3.8698,-3.8708,-3.8718,-3.8735,-3.8746,-3.8763,-3.877,-3.8788,-3.8798,-3.8812,-3.8821,-3.8815,-3.8846,-3.884,-3.8852,-3.8852,-3.8858,-3.8857,-3.8885,-3.8863,-3.8863,-3.8863,-3.8863,0,-3.863,-3.8648,-3.8668,-3.8682,-3.8702,-3.8714,-3.8733,-3.8744,-3.8759,-3.8775,-3.8781,-3.8795,-3.8806,-3.8822,-3.883,-3.885,-3.8854,-3.886,-3.8861,-3.8859,-3.8859,-3.8866,-3.8865,-3.8864,-3.8864,-3.8863,-3.8863,0,-3.8641,-3.8655,-3.868,-3.8702,-3.8708,-3.8722,-3.8741,-3.8754,-3.8764,-3.8784,-3.8789,-3.8805,-3.8824,-3.8835,-3.8858,-3.8863,-3.8887,-3.8888,-3.8882,-3.8883,-3.8894,-3.8893,-3.8927,-3.8933,-3.8907,-3.8907,-3.8907,0,-3.8652,-3.8667,-3.8691,-3.8703,-3.8715,-3.8733,-3.8745,-3.8758,-3.877,-3.8792,-3.8802,-3.8822,-3.8839,-3.8869,-3.8882,-3.89,-3.8902,-3.8913,-3.8904,-3.8902,-3.8903,-3.8902,-3.8904,-3.8914,-3.8914,-3.8914,-3.8914,0,-3.8671,-3.8678,-3.8697,-3.8718,-3.8733,-3.875,-3.8767,-3.8776,-3.8791,-3.8805,-3.8825,-3.8838,-3.8864,-3.8883,-3.8903,-3.8913,-3.8916,-3.8917,-3.8921,-3.8919,-3.8915,-3.8918,-3.8886,-3.8916,-3.8916,-3.8916,-3.8916,-3.8916,-3.8683,-3.8697,-3.8717,-3.8738,-3.8752,-3.8768,-3.8783,-3.8796,-3.8814,-3.8836,-3.8842,-3.8864,-3.8881,-3.8909,-3.892,-3.8936,-3.8934,-3.894,-3.8941,-3.8942,-3.8943,-3.8913,-3.894,-3.894,-3.894,-3.894,-3.894,0,-3.8703,-3.8717,-3.8736,-3.8761,-3.8777,-3.8781,-3.88,-3.8813,-3.8833,-3.885,-3.8867,-3.8891,-3.8911,-3.8926,-3.8946,-3.8957,-3.8959,-3.8961,-3.8961,-3.8963,-3.8943,-3.8938,-3.896,-3.896,-3.896,-3.896,-3.896,-3.896,-3.8715,-3.874,-3.8749,-3.878,-3.8794,-3.8817,-3.8828,-3.8843,-3.8856,-3.8884,-3.8901,-3.8911,-3.8928,-3.8949,-3.8968,-3.8972,-3.8979,-3.8982,-3.8986,-3.8967,-3.8965,-3.8962,-3.8958,-3.8983,-3.8983,-3.9005,-3.9005,-3.9005]}]]